Flag for U.S.A. Weather past 2 weeks in Fort Collins, Colorado, U.S.A.

Now
45 °F

Sunny.


Feels Like: 42 °F
Forecast: 22 / 41 °F
Wind: 5 mph from East

Location: Fort Collins-Loveland Municipal Airport

Current Time: Dec 18, 2014 at 3:11:27 PM

Latest Report: Dec 18, 2014 at 2:35 PM


Visibility: 10 mi

Pressure: 30.03 "Hg

Humidity: 49%

Dew point: 27 °F

Location of Fort CollinsLocation

Historic Weather in Fort Collins — Graph

°F

Fort Collins temperature yesterday

Maximum temperature yesterday: 39 °F (at 12:55 PM)
Minimum temperature yesterday: 19 °F (at 1:15 AM)
Average temperature yesterday: 27 °F

Past Weeks' High & Low Weather Summary

 TemperatureHumidityPressure
High61 °F (Dec 11, 2:55 PM)93% (Dec 15, 12:55 AM)30.38 "Hg (Dec 15, 12:55 AM)
Low16 °F (Dec 16, 5:35 AM)20% (Dec 10, 2:35 PM)29.70 "Hg (Dec 14, 4:15 AM)
Average35 °F62%30.08 "Hg
* Reported Dec 3 1:15 PM — Dec 18 1:55 PM, Fort Collins, Weather by CustomWeather, © 2014

Note: Actual official high and low records may vary slightly from our data, if they occured in-between our weather recording intervals... More about our weather records

Advertising

Fort Collins weather history for previous 24 hours

 ConditionsComfort  
Time TempWeatherWind HumidityBarometerVisibility
1:55 PM
Dec 18
43 °FSunny.No wind49%30.02 "Hg10 mi
1:35 PM45 °FSunny.3 mph46%30.02 "Hg10 mi
1:15 PM45 °FSunny.3 mph46%30.02 "Hg10 mi
12:55 PM43 °FSunny.5 mph49%30.03 "Hg10 mi
12:35 PM43 °FSunny.No wind49%30.03 "Hg10 mi
12:15 PM43 °FSunny.5 mph46%30.04 "Hg10 mi
11:55 AM41 °FSunny.3 mph49%30.04 "Hg10 mi
11:35 AM41 °FSunny.No wind53%30.05 "Hg10 mi
11:15 AM37 °FSunny.3 mph56%30.06 "Hg10 mi
10:55 AM37 °FSunny.3 mph60%30.07 "Hg10 mi
10:35 AM36 °FSunny.3 mph56%30.07 "Hg10 mi
10:15 AM34 °FPassing clouds.5 mph70%30.07 "Hg10 mi
9:55 AM30 °FPartly sunny.No wind75%30.07 "Hg10 mi
9:35 AM28 °FBroken clouds.No wind80%30.07 "Hg10 mi
9:15 AM28 °FSunny.No wind74%30.07 "Hg10 mi
8:55 AM27 °FSunny.No wind80%30.06 "Hg10 mi
8:35 AM27 °FSunny.No wind80%30.05 "Hg10 mi
8:15 AM25 °FSunny.No wind86%30.05 "Hg10 mi
7:55 AM25 °FSunny.No wind86%30.04 "Hg10 mi
7:35 AM21 °FSunny.No wind86%30.03 "Hg10 mi
7:15 AM21 °FClear.No wind80%30.03 "Hg10 mi
6:55 AM21 °FClear.No wind80%30.03 "Hg10 mi
6:35 AM25 °FClear.3 mph80%30.03 "Hg10 mi
6:15 AM23 °FClear.6 mph86%30.02 "Hg10 mi
5:55 AM21 °FClear.No wind93%30.01 "Hg10 mi
5:35 AM21 °FClear.No wind93%30.01 "Hg10 mi
5:15 AM23 °FClear.5 mph86%30.00 "Hg10 mi
4:55 AM23 °FClear.No wind86%30.00 "Hg10 mi
4:35 AM23 °FClear.No wind86%29.99 "Hg10 mi
4:15 AM23 °FClear.No wind86%30.00 "Hg9 mi
3:55 AM21 °FClear.No wind86%30.00 "Hg9 mi
3:35 AM23 °FClear.5 mph86%30.00 "Hg9 mi
3:15 AM23 °FClear.6 mph86%30.00 "Hg8 mi
2:55 AM21 °FClear.5 mph86%30.00 "Hg7 mi
2:35 AM23 °FClear.6 mph86%30.00 "Hg9 mi
2:15 AM23 °FClear.No wind86%30.00 "Hg9 mi
1:55 AM21 °FClear.No wind86%30.00 "Hg10 mi
1:35 AM23 °FClear.No wind86%29.99 "Hg10 mi
1:15 AM25 °FClear.No wind80%29.99 "Hg10 mi
12:55 AM25 °FClear.No wind80%29.99 "Hg10 mi
12:35 AM25 °FClear.No wind86%29.99 "Hg10 mi
12:15 AM25 °FClear.No wind80%30.00 "Hg10 mi
11:55 PM
Dec 17
25 °FClear.3 mph80%30.00 "Hg10 mi
11:35 PM25 °FPassing clouds.No wind80%30.00 "Hg10 mi
10:55 PM25 °FPassing clouds.No wind80%30.01 "Hg10 mi
10:35 PM27 °FClear.No wind74%30.01 "Hg10 mi
10:15 PM27 °FClear.3 mph74%30.00 "Hg10 mi
9:55 PM27 °FClear.6 mph74%30.00 "Hg10 mi
9:35 PM25 °FClear.6 mph80%29.99 "Hg10 mi
9:15 PM25 °FClear.6 mph74%29.99 "Hg10 mi
8:35 PM27 °FClear.3 mph80%29.98 "Hg10 mi
8:15 PM28 °FClear.No wind74%29.97 "Hg10 mi
7:55 PM28 °FClear.No wind69%29.97 "Hg10 mi
7:35 PM30 °FClear.No wind69%29.97 "Hg10 mi
7:15 PM28 °FClear.No wind74%29.97 "Hg10 mi
6:55 PM28 °FClear.6 mph69%29.97 "Hg10 mi
6:35 PM30 °FClear.No wind69%29.97 "Hg10 mi
6:15 PM28 °FPassing clouds.5 mph69%29.96 "Hg10 mi
5:55 PM30 °FClear.5 mph64%29.96 "Hg10 mi
5:35 PM30 °FClear.3 mph69%29.95 "Hg10 mi
4:55 PM34 °FClear.5 mph60%29.95 "Hg10 mi
4:35 PM36 °FClear.5 mph56%29.94 "Hg10 mi
4:15 PM36 °FSunny.5 mph60%29.94 "Hg10 mi
3:55 PM37 °FSunny.5 mph56%29.94 "Hg10 mi
3:35 PM37 °FSunny.5 mph56%29.93 "Hg10 mi
3:15 PM37 °FSunny.No wind56%29.93 "Hg10 mi
Weather by CustomWeather, © 2014

See weather overviewHow to use our weather pages